This is the latest recevied weather packets stored in our database for station/object KG7QQL. If no packets are shown the sender has not sent any weather packets the latest 10 day(s).
| Time | Temp. | Humidity | Pressure | Rain* | Wind** | Luminosity | Snow |
|---|---|---|---|---|---|---|---|
| 1777884629 | 14.44° C | 71% | - | 0 mm | - | - | - |
| 1777884326 | 14.44° C | 71% | - | 0 mm | - | - | - |
| 1777884022 | 14.44° C | 71% | - | 0 mm | - | - | - |
| 1777883721 | 14.44° C | 70% | - | 0 mm | - | - | - |
| 1777883416 | 15° C | 69% | - | 0 mm | - | - | - |
| 1777883113 | 15° C | 68% | - | 0 mm | - | - | - |
| 1777882809 | 15° C | 67% | - | 0 mm | - | - | - |
| 1777882507 | 15° C | 67% | - | 0 mm | - | - | - |
| 1777882202 | 15.56° C | 65% | - | 0 mm | - | - | - |
| 1777881899 | 15.56° C | 65% | - | 0 mm | - | - | - |
| 1777881595 | 15.56° C | 65% | - | 0 mm | - | - | - |
| 1777881292 | 16.11° C | 64% | - | 0 mm | - | - | - |
| 1777880989 | 16.11° C | 63% | - | 0 mm | - | - | - |
| 1777880687 | 16.11° C | 63% | - | 0 mm | - | - | - |
| 1777880385 | 16.11° C | 64% | - | 0 mm | - | - | - |
| 1777880084 | 15.56° C | 65% | - | 0 mm | - | - | - |
| 1777879782 | 16.11° C | 64% | - | 0 mm | - | - | - |
| 1777879478 | 16.11° C | 62% | - | 0 mm | - | - | - |
| 1777879175 | 16.67° C | 61% | - | 0 mm | - | - | - |
| 1777878872 | 16.11° C | 62% | - | 0 mm | - | - | - |
| 1777878570 | 16.67° C | 62% | - | 0 mm | - | - | - |
| 1777878266 | 16.67° C | 59% | - | 0 mm | - | - | - |
| 1777877962 | 16.67° C | 61% | - | 0 mm | - | - | - |
| 1777877659 | 16.11° C | 62% | - | 0 mm | - | - | - |
| 1777877356 | 16.11° C | 64% | - | 0 mm | - | - | - |
* Rain latest hour (hover to see other rain measurements)
** Current wind speed in m/s (hover to see current wind gust speed)